Location: Omaha
(41.2590°N, 95.9380°W)
Time: 04:39:45
(UTC-06:00)

Tiangong 2 - Pass Details

Date: 11 October 2017
Orbit: 386 x 392 km, 42.8° (Epoch: 21 November)

Event Time Altitude Azimuth Distance (km) Brightness Sun altitude
Exits shadow 06:42:37 15° 265° (W) 1,154 2.8 -10.0°
Maximum altitude 06:45:09 75° 349° (N) 406 1.1 -9.5°
Drops below altitude 10° 06:48:22 10° 77° (ENE) 1,423 5.4 -8.9°
Sets 06:50:27 0° 79° (E) 2,281 6.9 -8.5°
